User: anonymous   Login
Location: Windsor
(43.2292°N, 89.3015°W)
Time: 11:27:50
(UTC+00:00)
Language:

HuskySat-1 - Orbit

View from above orbital plane
View from above orbital plane
View from above satellite
View from above satellite

Ground track
Ground track

The orbit data is extracted from the following two-line orbital elements,

1 45117U 19071G   22176.00930634  .00023045  00000-0  43251-3 0  9991
2 45117  51.6377  17.0945 0008561 195.9322 164.1398 15.48480731134603
Epoch (UTC): 25 June 2022 00:13:24
Eccentricity: 0.0008561
inclination: 51.6377°
perigee height: 415 km
apogee height: 427 km
right ascension of ascending node: 17.0945°
argument of perigee: 195.9322°
revolutions per day: 15.48480731
mean anomaly at epoch: 164.1398°
orbit number at epoch: 13460

The dashed part of the orbit path shows where the satellite is in the earth's shadow,  

DLR